Other Surface Observations
Issued by NWS

Home | Current Version | Previous Version | Text Only | Print | Product List | Glossary On
Versions: 1 2 3 4 5 6 7 8 9 10 11 12 13 14 15 16 17 18 19 20 21 22 23 24 25 26 27 28 29 30 31 32 33 34 35 36 37 38 39 40 41 42 43 44 45 46 47 48 49 50
923
SXUS52 KTAE 251606
OSOTAE
OSOTAE
North Florida/South Alabama/Southwest Georgia Weather Roundup
National Weather Service Tallahassee Florida
1200 PM EDT SUN SEP 25 2016

Note: "fair" indicates few or no clouds below 12,000 feet with no
significant weather and/or obstructions to visibility.

!FLZ017-115-028-034-025-251700
...North Florida...

CITY           SKY/WX    TMP DP  RH WIND       PRES   REMARKS
TALLAHASSEE    MOSUNNY   90  72  55 CALM      30.04F HX  97
APALACHICOLA   MOSUNNY   87  77  72 SE8       30.03S HX  99
PERRY          CLOUDY    84  77  80 CALM      30.05S HX  93
CROSS CITY     PTSUNNY   90  73  58 E7        30.04F HX  98
JACKSONVILLE   PTSUNNY   86  71  60 E7        30.06S HX  91
$$

!FLZ112-006-005-002-011-251700
...Florida Panhandle...

CITY           SKY/WX    TMP DP  RH WIND       PRES   REMARKS
MARIANNA       SUNNY     87  73  62 VRB3      30.03F HX  94
BONIFAY        FAIR      87  72  60 E6        30.05F HX  93
PANAMA CITY NW MOSUNNY   90  73  58 N7        30.02F HX  98
TYNDALL AFB    SUNNY     87  74  66 VRB5      30.03F HX  95
TYND DRONE APT FAIR      86  78  75 NE3       30.03F HX  98
DE FUNIAK SPR  FAIR      88  70  54 E6        30.05S HX  92
EGLIN AFB      MOSUNNY   87  69  55 VRB2      30.03F HX  91
DESTIN         SUNNY     90  71  53 VRB3      30.03F HX  96
HURLBURT       NOT AVBL
CRESTVIEW      SUNNY     92  68  45 SE9       30.04F HX  96
PENSACOLA      SUNNY     90  72  55 N5        30.02F HX  97
$$

!ALZ063-066-251700
...South Alabama...

CITY           SKY/WX    TMP DP  RH WIND       PRES   REMARKS
DOTHAN         SUNNY     90  72  55 NE8       30.09F HX  97
OZARK CAIRNS   SUNNY     87  74  65 E3        30.05F HX  95
FT RUCKER HELI SUNNY     87  72  60 VRB3      30.04F HX  93
RUCKER HELI 3  NOT AVBL
RUCKER HELI 2  FAIR      88  71  57 VRB3      30.04F HX  94
FLORALA APT    NOT AVBL
ANDALUSIA      SUNNY     93  69  45 CALM      30.04F HX  98
TROY           SUNNY     89  69  51 VRB3      30.06F HX  93
EUFALA         FAIR      92  66  42 CALM      30.05F HX  94
MOBILE         MOSUNNY   88  72  58 NW6       30.05F HX  94
$$

!GAZ120>161-251700
...Southwest and South Central Georgia...

CITY           SKY/WX    TMP DP  RH WIND       PRES   REMARKS
THOMASVILLE    FAIR      88  77  70 NE3       30.07S HX 100
BAINBRIDGE     SUNNY     88  72  58 CALM      30.05F HX  94
MOODY AFB      SUNNY     87  70  56 SE7       30.05F HX  91
VALDOSTA       MOSUNNY   87  74  64 VRB3      30.06S HX  95
MOULTRIE       SUNNY     86  72  62 CALM      30.07S HX  92
BLAKELY        SUNNY     90  70  51 S3        30.05F HX  95
ALBANY         SUNNY     89  70  53 E6        30.07F HX  94
TIFTON         FAIR      85  70  59 CALM      30.07S HX  90
FITZGERALD     FAIR      89  76  63 CALM      30.10S HX 100
CORDELE        PTSUNNY   89  71  55 E5        30.08F HX  95
AMERICUS       FAIR      88  63  42 E8        30.08F
HOMERVILLE     FAIR      88  72  58 SE6       30.07S HX  94
$$

!GMZ750-755-770-775-251700
...Coastal and Buoy Obs...

STATION/POSITION TIME  TEMP    WIND        PRES    VSBY  WAVE
                       AIR SEA DIR/SP/G                  HT/PER
                 (UTC) (F)     (DEG/KT/KT) (MB)    (MI)  (FT/S)
KEATON BEACH     1600   86     310/  2/  4 1017.1S
CEDAR KEY        1500   81      90/  6/  6 1017.9R
C TOWER          1600   84     110/  3/  4 1017.8F
APALACHICOLA BUO 1550   85 86   40/  4/  6 1017.3S         0
PANAMA CITY BUOY 1450   83 85              1017.6          1
MOBILE BUOY      1500   83 85   20/  6/  8 1017.0F
ORANGE BCH AL BU 1550   84 86  310/ 10/ 10 1017.0F         1
$$




USA.gov is the U.S. government's official web portal to all federal, state and local government web resources and services.